N1OTX Weather Reports


time (UTC)temp
F
wind
direction
speed
knots
gust
knots
rain 1hr
in
rain 24hr
in
rain mn
in
humidity
%
barometer
mb
20260509055529 38 0.0 0.0 0.00 0.00 0.00 88 1013.9
20260509055029 39 0.0 0.0 0.00 0.00 0.00 87 1014.1
20260509054528 38 0.0 0.0 0.00 0.00 0.00 88 1014.1
20260509054028 38 0.0 0.0 0.00 0.00 0.00 88 1014.1
20260509053528 38 0.0 0.0 0.00 0.00 0.00 88 1014.1
20260509053028 39 0.0 0.0 0.00 0.00 0.00 87 1014.1
20260509052528 39 0.0 0.0 0.00 0.00 0.00 87 1014.1
20260509052048 39 0.0 0.0 0.00 0.00 0.00 88 1014.1
20260509051527 39 0.0 0.0 0.00 0.00 0.00 86 1014.0
20260509051049 39 0.0 0.0 0.00 0.00 0.00 85 1013.9
20260509050527 39 0.0 0.0 0.00 0.00 0.00 85 1013.9
20260509050028 39 0.0 0.0 0.00 0.00 0.00 84 1014.0
20260509045528 40 0.0 0.0 0.00 0.00 0.00 85 1013.9
20260509045028 40 0.0 0.0 0.00 0.00 0.00 84 1013.9
20260509044548 40 0.0 0.0 0.00 0.00 0.00 85 1013.9
20260509044028 40 0.0 0.0 0.00 0.00 0.00 84 1013.9
20260509043528 40 0.0 0.0 0.00 0.00 0.00 84 1013.9
20260509043028 40 0.0 0.0 0.00 0.00 0.00 84 1013.9
20260509042528 40 0.0 0.0 0.00 0.00 0.00 83 1013.9
20260509042048 40 0.0 0.0 0.00 0.00 0.00 82 1013.8
20260509041529 41 0.0 0.0 0.00 0.00 0.00 83 1013.7
20260509041027 41 0.0 0.0 0.00 0.00 0.00 81 1013.6
20260509040527 41 0.0 0.0 0.00 0.00 0.00 80 1013.6
20260509040027 41 0.0 0.0 0.00 0.00 0.00 79 1013.6
20260509035527 41 0.0 0.0 0.00 0.00 0.00 79 1013.6
20260509035029 41 0.0 0.0 0.00 0.00 0.00 78 1013.5
20260509034549 42 0.0 0.0 0.00 0.00 0.00 77 1013.5
20260509034029 42 0.0 0.0 0.00 0.00 0.00 76 1013.6
20260509033528 42 0.0 0.0 0.00 0.00 0.00 77 1013.6
20260509033048 42 0.0 0.0 0.00 0.00 0.00 76 1013.5
20260509032528 42 0.0 0.0 0.00 0.00 0.00 76 1013.5
20260509032048 42 0.0 0.0 0.00 0.00 0.00 76 1013.5
20260509031528 42 0.0 0.0 0.00 0.00 0.00 76 1013.4
20260509031028 42 0.0 0.0 0.00 0.00 0.00 76 1013.4
20260509030528 43 0.0 0.0 0.00 0.00 0.00 74 1013.4
20260509030048 43 0.0 0.0 0.00 0.00 0.00 74 1013.3
20260509025527 43 0.0 0.0 0.00 0.00 0.00 74 1013.4
20260509025027 43 0.0 0.0 0.00 0.00 0.00 73 1013.4
20260509024527 43 0.0 0.0 0.00 0.00 0.00 73 1013.3
20260509024047 44 0.0 0.0 0.00 0.00 0.00 72 1013.3
20260509023529 44 0.0 0.0 0.00 0.00 0.00 73 1013.3
20260509023029 44 0.0 0.0 0.00 0.00 0.00 73 1013.4
20260509022549 44 0.0 0.0 0.00 0.00 0.00 71 1013.3
20260509022029 45 0.0 0.0 0.00 0.00 0.00 71 1013.2
20260509021528 45 0.0 0.0 0.00 0.00 0.00 70 1013.1
20260509021048 46 0.0 0.0 0.00 0.00 0.00 70 1013.0
20260509020528 46 0.0 0.0 0.00 0.00 0.00 69 1012.9
20260509020028 46 0.0 0.0 0.00 0.00 0.00 68 1012.8
20260509015528 47 0.0 0.0 0.00 0.00 0.00 65 1012.8
20260509015028 47 0.0 0.0 0.00 0.00 0.00 61 1012.7
20260509014528 47 0.0 0.0 0.00 0.00 0.00 62 1012.8
20260509014027 48 0.0 0.0 0.00 0.00 0.00 62 1012.6
20260509013527 48 0.0 0.0 0.00 0.00 0.00 60 1012.6
20260509013027 48 0.0 0.0 0.00 0.00 0.00 61 1012.4
20260509012547 48 16 0.0 0.9 0.00 0.00 0.00 63 1012.3
20260509012027 49 0.0 0.0 0.00 0.00 0.00 62 1012.1
20260509011529 49 0.0 0.0 0.00 0.00 0.00 61 1012.0
20260509011029 49 0.0 0.0 0.00 0.00 0.00 61 1011.9
20260509010609 49 0.0 0.0 0.00 0.00 0.00 61 1011.8
20260509010049 49 0.0 0.0 0.00 0.00 0.00 60 1011.8
20260509005528 49 0.0 0.0 0.00 0.00 0.00 60 1011.7
20260509005028 49 0.0 0.9 0.00 0.00 0.00 60 1011.5
20260509004528 49 16 0.0 0.9 0.00 0.00 0.00 60 1011.3
20260509004028 49 0.0 0.0 0.00 0.00 0.00 60 1011.2
20260509003528 50 0.0 0.0 0.00 0.00 0.00 58 1011.1
20260509003048 50 0.0 0.0 0.00 0.00 0.00 57 1011.1
20260509002527 50 0.0 0.0 0.00 0.00 0.00 56 1010.8
20260509002027 51 0.0 0.0 0.00 0.00 0.00 54 1010.7
20260509001527 51 0.0 0.0 0.00 0.00 0.00 54 1010.6
20260509001047 52 0.0 0.0 0.00 0.00 0.00 53 1010.6
20260509000527 52 16 0.0 0.9 0.00 0.00 0.00 50 1010.5
20260509000029 53 43 0.0 0.9 0.00 0.00 0.00 48 1010.5
20260508235549 53 43 0.0 1.7 0.00 0.00 0.00 46 1010.3
20260508235029 53 94 0.0 1.7 0.00 0.00 0.00 46 1010.3
20260508234528 53 103 0.0 0.9 0.00 0.00 0.00 46 1010.1
20260508234028 54 0.0 1.7 0.00 0.00 0.00 46 1010.0
20260508233528 54 173 0.0 1.7 0.00 0.00 0.00 45 1010.0
20260508233028 55 309 0.0 6.1 0.00 0.00 0.00 44 1009.9
20260508232528 55 212 0.9 7.0 0.00 0.00 0.00 43 1009.9
20260508232028 55 181 0.9 1.7 0.00 0.00 0.00 43 1009.8
20260508231527 55 134 0.9 2.6 0.00 0.00 0.00 43 1009.7
20260508231027 55 358 0.0 1.7 0.00 0.00 0.00 43 1009.7
20260508230527 55 290 0.9 1.7 0.00 0.00 0.00 44 1009.7
20260508230027 55 278 0.0 1.7 0.00 0.00 0.00 42 1009.7
20260508225527 55 44 0.9 2.6 0.00 0.00 0.00 42 1009.5
20260508225027 56 28 0.9 3.5 0.00 0.00 0.00 41 1009.4
20260508224529 56 197 0.9 5.2 0.00 0.00 0.00 40 1009.4
20260508224049 56 348 0.9 2.6 0.00 0.00 0.00 40 1009.4
20260508223528 56 169 0.9 2.6 0.00 0.00 0.00 40 1009.4
20260508223053 56 231 0.0 1.7 0.00 0.00 0.00 39 1009.4
20260508222528 57 22 0.0 1.7 0.00 0.00 0.00 36 1009.4
20260508222028 57 31 0.0 1.7 0.00 0.00 0.00 32 1009.3
20260508221528 57 9 0.9 3.5 0.00 0.00 0.00 33 1009.4
20260508221108 58 286 0.9 3.5 0.00 0.00 0.00 33 1009.4
20260508220528 58 23 1.7 6.1 0.00 0.00 0.00 33 1009.4
20260508220028 58 351 0.9 5.2 0.00 0.00 0.00 33 1009.3
20260508215527 58 356 0.9 7.0 0.00 0.00 0.00 33 1009.3
20260508215027 58 302 0.9 7.0 0.00 0.00 0.00 34 1009.3
20260508214527 58 25 0.9 2.6 0.00 0.00 0.00 34 1009.1
20260508214027 58 343 0.9 3.5 0.00 0.00 0.00 34 1009.1
20260508213526 58 9 1.7 5.2 0.00 0.00 0.00 34 1009.1
20260508213029 58 10 1.7 5.2 0.00 0.00 0.00 34 1009.1
20260508212529 58 36 0.9 3.5 0.00 0.00 0.00 34 1009.0
20260508212029 58 14 1.7 5.2 0.00 0.00 0.00 34 1009.1
20260508211548 58 344 1.7 5.2 0.00 0.00 0.00 35 1009.1
20260508211028 58 34 0.9 2.6 0.00 0.00 0.00 35 1009.0
20260508210548 58 33 1.7 6.1 0.00 0.00 0.00 35 1009.1
20260508210028 58 195 1.7 3.5 0.00 0.00 0.00 35 1009.0
20260508205528 58 353 0.9 1.7 0.00 0.00 0.00 37 1009.0
20260508205028 58 6 0.9 2.6 0.00 0.00 0.00 37 1009.0
20260508204528 58 330 0.9 3.5 0.00 0.00 0.00 35 1008.9
20260508204027 58 12 1.7 3.5 0.00 0.00 0.00 35 1008.9
20260508203527 58 337 0.9 2.6 0.00 0.00 0.00 35 1008.9
20260508203027 58 6 1.7 6.1 0.00 0.00 0.00 37 1009.0
20260508202527 58 17 1.7 3.5 0.00 0.00 0.00 36 1008.9
20260508202027 59 349 0.9 3.5 0.00 0.00 0.00 36 1008.9
20260508201527 60 23 1.7 6.1 0.00 0.00 0.00 33 1008.9
20260508201027 60 37 1.7 5.2 0.00 0.00 0.00 36 1008.9
20260508200527 60 39 1.7 5.2 0.00 0.00 0.00 35 1008.7
20260508200027 60 6 2.6 5.2 0.00 0.00 0.00 35 1008.8
20260508195527 60 3 1.7 5.2 0.00 0.00 0.00 35 1008.7
20260508195028 59 16 1.7 3.5 0.00 0.00 0.00 36 1008.6
20260508194528 60 354 1.7 3.5 0.00 0.00 0.00 34 1008.6
20260508194030 60 28 1.7 3.5 0.00 0.00 0.00 34 1008.5
20260508193548 59 350 1.7 5.2 0.00 0.00 0.00 35 1008.6
20260508193028 59 5 0.9 2.6 0.00 0.00 0.00 34 1008.6
20260508192528 58 302 1.7 5.2 0.00 0.00 0.00 34 1008.6
20260508192028 59 332 1.7 3.5 0.00 0.00 0.00 32 1008.7
20260508191528 59 326 1.7 6.1 0.00 0.00 0.00 34 1008.6
20260508191027 60 355 2.6 7.0 0.00 0.00 0.00 31 1008.6
20260508190527 59 18 1.7 6.1 0.00 0.00 0.00 33 1008.5
20260508190027 59 4 1.7 5.2 0.00 0.00 0.00 32 1008.6
20260508185528 59 30 1.7 5.2 0.00 0.00 0.00 33 1008.7
20260508185028 59 4 0.9 7.8 0.00 0.00 0.00 32 1008.6
20260508184528 59 59 1.7 7.8 0.00 0.00 0.00 31 1008.6
20260508184027 60 21 1.7 5.2 0.00 0.00 0.00 33 1008.7
20260508183527 60 320 1.7 7.8 0.00 0.00 0.00 32 1008.7
20260508183027 60 214 1.7 7.8 0.00 0.00 0.00 33 1008.7
20260508182547 60 347 1.7 5.2 0.00 0.00 0.00 33 1008.7
20260508182027 60 258 1.7 3.5 0.00 0.00 0.00 35 1008.7
20260508181527 59 30 1.7 5.2 0.00 0.00 0.00 36 1008.7
20260508181027 59 5 1.7 6.1 0.00 0.00 0.00 35 1008.7
20260508180529 59 275 1.7 8.7 0.00 0.00 0.00 35 1008.7
20260508180028 59 2 2.6 7.8 0.00 0.00 0.00 34 1008.7
20260508175528 58 35 1.7 3.5 0.00 0.00 0.00 35 1008.6
20260508175028 58 1 1.7 7.0 0.00 0.00 0.00 35 1008.7
20260508174528 59 15 1.7 6.1 0.00 0.00 0.00 35 1008.7
20260508174028 59 354 1.7 6.1 0.00 0.00 0.00 34 1008.8
20260508173528 59 317 1.7 7.8 0.00 0.00 0.00 35 1008.8
20260508173048 60 39 1.7 5.2 0.00 0.00 0.00 34 1008.8
20260508172529 61 350 1.7 3.5 0.00 0.00 0.00 34 1008.8
20260508172048 61 251 1.7 5.2 0.00 0.00 0.00 35 1008.7
20260508171528 60 38 1.7 5.2 0.00 0.00 0.00 35 1008.8
20260508171048 60 359 2.6 5.2 0.00 0.00 0.00 35 1008.7
20260508170528 59 34 1.7 5.2 0.00 0.00 0.00 37 1008.7
20260508170028 59 7 1.7 6.1 0.00 0.00 0.00 35 1008.7
20260508165527 59 15 2.6 6.1 0.00 0.00 0.00 36 1008.7
20260508165032 59 140 1.7 6.1 0.00 0.00 0.00 34 1008.6
20260508164526 59 68 1.7 6.1 0.00 0.00 0.00 35 1008.6
20260508164027 60 25 0.9 3.5 0.00 0.00 0.00 35 1008.7
20260508163608 61 6 1.7 3.5 0.00 0.00 0.00 34 1008.7
20260508163029 61 10 1.7 5.2 0.00 0.00 0.00 36 1008.7
20260508162529 60 6 1.7 6.1 0.00 0.00 0.00 35 1008.6
20260508162028 60 340 1.7 6.1 0.00 0.00 0.00 34 1008.7
20260508161628 60 356 1.7 5.2 0.00 0.00 0.00 33 1008.8
20260508161028 61 28 1.7 5.2 0.00 0.00 0.00 35 1008.7
20260508160528 61 16 1.7 3.5 0.00 0.00 0.00 35 1008.8
20260508160028 60 291 0.9 5.2 0.00 0.00 0.00 36 1009.0
20260508155528 59 191 1.7 6.1 0.00 0.00 0.00 36 1009.0
20260508155028 58 163 0.9 8.7 0.00 0.00 0.00 36 1009.1
20260508154527 58 342 0.9 2.6 0.00 0.00 0.00 36 1009.1
20260508154027 58 239 0.9 5.2 0.00 0.00 0.00 37 1009.2
20260508153527 57 21 1.7 3.5 0.00 0.00 0.00 37 1009.3
20260508153047 58 358 1.7 3.5 0.00 0.00 0.00 35 1009.2
20260508152527 59 35 1.7 5.2 0.00 0.00 0.00 36 1009.2
20260508152026 58 255 1.7 7.0 0.00 0.00 0.00 37 1009.2
20260508151528 58 39 1.7 3.5 0.00 0.00 0.00 36 1009.2
20260508151028 58 1 1.7 8.7 0.00 0.00 0.00 37 1009.3
20260508150528 58 16 0.9 5.2 0.00 0.00 0.00 37 1009.3
20260508150028 57 6 1.7 5.2 0.00 0.00 0.00 38 1009.4
20260508145528 57 11 2.6 6.1 0.00 0.00 0.00 35 1009.5
20260508145028 57 11 1.7 3.5 0.00 0.00 0.00 35 1009.4
20260508144527 57 4 1.7 3.5 0.00 0.00 0.00 36 1009.5
20260508144027 58 17 1.7 5.2 0.00 0.00 0.00 35 1009.3
20260508143547 58 341 1.7 5.2 0.00 0.00 0.00 37 1009.4
20260508143029 58 315 1.7 6.1 0.00 0.00 0.00 37 1009.5
20260508142527 58 245 0.9 6.1 0.00 0.00 0.00 38 1009.5
20260508142027 57 349 1.7 6.1 0.00 0.00 0.00 35 1009.5
20260508141529 57 346 1.7 7.0 0.00 0.00 0.00 37 1009.6
20260508141029 56 19 1.7 3.5 0.00 0.00 0.00 36 1009.5
20260508140529 56 348 1.7 6.1 0.00 0.00 0.00 37 1009.6
20260508140029 55 12 2.6 6.1 0.00 0.00 0.00 36 1009.7
20260508135528 56 350 1.7 5.2 0.00 0.00 0.00 36 1009.8
20260508135028 56 352 1.7 5.2 0.00 0.00 0.00 37 1009.9
20260508134528 55 341 1.7 5.2 0.00 0.00 0.00 39 1010.0
20260508134048 55 5 2.6 7.0 0.00 0.00 0.00 38 1009.9
20260508133528 55 30 1.7 7.0 0.00 0.00 0.00 37 1010.0
20260508133027 55 303 1.7 3.5 0.00 0.00 0.00 40 1010.0
20260508132528 55 22 1.7 3.5 0.00 0.00 0.00 39 1010.1
20260508132027 55 333 0.9 2.6 0.00 0.00 0.00 41 1010.0
20260508131527 55 44 0.9 7.0 0.00 0.00 0.00 40 1010.2
20260508131108 54 323 0.9 3.5 0.00 0.00 0.00 41 1010.1
20260508130527 54 16 0.9 2.6 0.00 0.00 0.00 44 1010.1
20260508130029 54 33 0.9 3.5 0.00 0.00 0.00 41 1010.1
20260508125547 54 0 0.9 3.5 0.00 0.00 0.00 46 1010.1
20260508125027 53 71 0.9 5.2 0.00 0.00 0.00 45 1010.1
20260508124549 53 102 0.9 3.5 0.00 0.00 0.00 45 1010.1
20260508124029 53 13 0.9 3.5 0.00 0.00 0.00 47 1010.2
20260508123528 52 287 0.9 3.5 0.00 0.00 0.00 46 1010.2
20260508123028 52 313 0.9 2.6 0.00 0.00 0.00 47 1010.3
20260508122528 52 337 0.9 3.5 0.00 0.00 0.00 47 1010.3
20260508122028 52 27 0.9 1.7 0.00 0.00 0.00 46 1010.2
20260508121528 52 313 0.9 3.5 0.00 0.00 0.00 47 1010.3
20260508121028 51 313 0.9 3.5 0.00 0.00 0.00 48 1010.1
20260508120527 51 325 0.9 3.5 0.00 0.00 0.00 47 1010.2
20260508120027 51 321 0.9 1.7 0.00 0.00 0.00 47 1010.1
20260508115527 51 13 0.9 2.6 0.00 0.00 0.00 47 1010.2
20260508115027 51 40 0.9 1.7 0.00 0.00 0.00 49 1010.2
20260508114527 50 14 0.9 1.7 0.00 0.00 0.00 49 1010.2
20260508114027 50 29 0.0 1.7 0.00 0.00 0.00 51 1010.2
20260508113529 49 10 0.9 1.7 0.00 0.00 0.00 52 1010.2
20260508113029 49 295 0.0 1.7 0.00 0.00 0.00 54 1010.1
20260508112527 48 25 0.9 1.7 0.00 0.00 0.00 53 1010.2
20260508112027 48 257 0.0 1.7 0.00 0.00 0.00 56 1010.1
20260508111527 47 107 0.0 2.6 0.00 0.00 0.00 59 1010.1
20260508111027 46 185 0.0 0.9 0.00 0.00 0.00 63 1010.2
20260508110529 45 185 0.0 0.9 0.00 0.00 0.00 69 1010.2
20260508110028 43 0.0 0.0 0.00 0.00 0.00 75 1010.1
20260508105527 42 0.0 0.0 0.00 0.00 0.00 82 1009.9
20260508105047 41 186 0.0 0.9 0.00 0.00 0.00 81 1009.9
20260508104529 40 0.0 0.0 0.00 0.00 0.00 81 1009.9
20260508104049 40 0.0 0.0 0.00 0.00 0.00 82 1009.8
20260508103528 39 0.0 0.0 0.00 0.00 0.00 82 1009.8
20260508103048 39 0.0 0.0 0.00 0.00 0.00 82 1009.7
20260508102528 39 0.0 0.0 0.00 0.00 0.00 84 1009.6
20260508102028 39 0.0 0.0 0.00 0.00 0.00 83 1009.7
20260508101528 39 0.0 0.0 0.00 0.00 0.00 82 1009.5
20260508101028 39 0.0 0.0 0.00 0.00 0.00 83 1009.4
20260508100528 39 0.0 0.0 0.00 0.00 0.00 83 1009.4
20260508100028 39 0.0 0.0 0.00 0.00 0.00 82 1009.3
20260508095528 38 0.0 0.0 0.00 0.00 0.00 82 1009.3
20260508095028 38 0.0 0.0 0.00 0.01 0.00 83 1009.3
20260508094528 38 0.0 0.0 0.00 0.01 0.00 82 1009.2
20260508094048 38 0.0 0.0 0.00 0.02 0.00 82 1009.2
20260508093527 38 0.0 0.0 0.00 0.02 0.00 82 1009.2
20260508093048 38 0.0 0.0 0.00 0.02 0.00 83 1009.3
20260508092528 38 0.0 0.0 0.00 0.02 0.00 83 1009.2
20260508092028 37 0.0 0.0 0.00 0.02 0.00 82 1009.2
20260508091528 37 0.0 0.0 0.00 0.04 0.00 82 1009.2
20260508091048 37 0.0 0.0 0.00 0.05 0.00 82 1009.2
20260508090528 37 0.0 0.0 0.00 0.05 0.00 82 1009.2
20260508090048 37 0.0 0.0 0.00 0.06 0.00 83 1009.2
20260508085527 37 0.0 0.0 0.00 0.06 0.00 83 1009.1
20260508085027 37 0.0 0.0 0.00 0.06 0.00 83 1009.1
20260508084527 37 0.0 0.0 0.00 0.07 0.00 84 1009.1
20260508084029 37 0.0 0.0 0.00 0.07 0.00 84 1009.1
20260508083549 37 0.0 0.0 0.00 0.07 0.00 84 1009.1
20260508083049 37 0.0 0.0 0.00 0.07 0.00 83 1009.0
20260508082529 37 0.0 0.0 0.00 0.07 0.00 82 1008.9
20260508082028 37 0.0 0.0 0.00 0.07 0.00 83 1008.8
20260508081528 37 0.0 0.0 0.00 0.07 0.00 84 1008.8
20260508081109 37 0.0 0.0 0.00 0.07 0.00 84 1008.7
20260508080528 37 0.0 0.0 0.00 0.07 0.00 83 1008.6
20260508080028 38 0.0 0.0 0.00 0.07 0.00 81 1008.5
20260508075548 38 0.0 0.0 0.00 0.07 0.00 80 1008.4
20260508075048 38 0.0 0.0 0.00 0.07 0.00 80 1008.4
20260508074528 38 0.0 0.0 0.00 0.08 0.00 80 1008.2
20260508074027 38 0.0 0.0 0.00 0.08 0.00 81 1008.0
20260508073527 38 0.0 0.0 0.00 0.09 0.00 81 1007.9
20260508073027 38 0.0 0.0 0.00 0.09 0.00 80 1007.8
20260508072527 38 0.0 0.0 0.00 0.09 0.00 79 1007.8
20260508072027 39 0.0 0.0 0.00 0.09 0.00 78 1007.7
20260508071529 39 0.0 0.0 0.00 0.09 0.00 77 1007.7
20260508071028 39 0.0 0.0 0.00 0.09 0.00 76 1007.7
20260508070529 39 0.0 0.0 0.00 0.09 0.00 75 1007.7
20260508070028 40 0.0 0.0 0.00 0.09 0.00 75 1007.7
20260508065526 40 0.0 0.0 0.00 0.09 0.00 75 1007.7
20260508065028 40 0.0 0.0 0.00 0.09 0.00 75 1007.8
20260508064528 40 0.0 0.0 0.00 0.09 0.00 74 1007.8
20260508064028 41 0.0 0.0 0.00 0.09 0.00 73 1007.7
20260508063527 41 0.0 0.0 0.00 0.09 0.00 73 1007.7
20260508063028 41 0.0 0.0 0.00 0.09 0.00 73 1007.7
20260508062528 41 0.0 0.0 0.00 0.09 0.00 74 1007.7
20260508062027 41 0.0 0.0 0.00 0.09 0.00 71 1007.7
20260508061527 42 0.0 0.0 0.00 0.09 0.00 70 1007.7
20260508061027 42 0.0 0.0 0.00 0.09 0.00 70 1007.8
20260508060527 42 0.0 0.0 0.00 0.09 0.00 68 1007.9
20260508060027 42 0.0 0.0 0.00 0.09 0.00 69 1007.8